Previsão horária em Allur Reservior Lake

Hoje, 27 Janeiro, Quarta-feira

Tempo Temperatura Precipitação Vento Pressão Humidade
00:00 +23°C° 0 mm 2 m/s 759 mmHg 80%
01:00 +22°C° 0 mm 3 m/s 758 mmHg 82%
02:00 +21°C° 0 mm 3 m/s 758 mmHg 84%
03:00 +21°C° 0 mm 3 m/s 758 mmHg 85%
04:00 +21°C° 0 mm 2 m/s 758 mmHg 87%
05:00 +20°C° 0 mm 2 m/s 758 mmHg 89%
06:00 +23°C° 0 mm 2 m/s 759 mmHg 84%
07:00 +24°C° 0 mm 2 m/s 759 mmHg 78%
08:00 +25°C° 0 mm 2 m/s 760 mmHg 73%
09:00 +27°C° 0 mm 2 m/s 760 mmHg 66%
10:00 +29°C° 0 mm 2 m/s 760 mmHg 59%
11:00 +30°C° 0 mm 2 m/s 760 mmHg 53%
12:00 +30°C° 0 mm 3 m/s 759 mmHg 52%
13:00 +31°C° 0 mm 3 m/s 758 mmHg 51%
14:00 +31°C° 0 mm 3 m/s 758 mmHg 50%
15:00 +30°C° 0 mm 3 m/s 758 mmHg 54%
16:00 +29°C° 0 mm 3 m/s 758 mmHg 59%
17:00 +28°C° 0 mm 3 m/s 758 mmHg 63%
18:00 +27°C° 0 mm 3 m/s 759 mmHg 67%
19:00 +26°C° 0 mm 3 m/s 759 mmHg 70%
20:00 +25°C° 0 mm 2 m/s 760 mmHg 74%
21:00 +25°C° 0 mm 2 m/s 760 mmHg 76%
22:00 +25°C° 0 mm 2 m/s 760 mmHg 77%
23:00 +24°C° 0 mm 2 m/s 760 mmHg 79%

Amanhã, 28 Janeiro, Quinta-feira

Tempo Temperatura Precipitação Vento Pressão Humidade
00:00 +24°C° 0 mm 2 m/s 759 mmHg 81%
01:00 +24°C° 0 mm 2 m/s 759 mmHg 82%
02:00 +23°C° 0 mm 1 m/s 758 mmHg 84%
03:00 +23°C° 0 mm 2 m/s 758 mmHg 84%
04:00 +23°C° 0 mm 2 m/s 758 mmHg 85%
05:00 +21°C° 0 mm 2 m/s 759 mmHg 86%
06:00 +24°C° 0 mm 2 m/s 759 mmHg 82%
07:00 +25°C° 0 mm 2 m/s 760 mmHg 77%
08:00 +26°C° 0 mm 1 m/s 760 mmHg 72%
09:00 +28°C° 0 mm 2 m/s 760 mmHg 66%
10:00 +29°C° 0 mm 3 m/s 760 mmHg 59%
11:00 +32°C° 0 mm 4 m/s 760 mmHg 53%
12:00 +32°C° 0 mm 5 m/s 759 mmHg 53%
13:00 +32°C° 0 mm 5 m/s 759 mmHg 54%
14:00 +32°C° 0 mm 5 m/s 758 mmHg 54%
15:00 +30°C° 0 mm 5 m/s 758 mmHg 58%
16:00 +29°C° 0 mm 5 m/s 758 mmHg 63%
17:00 +28°C° 0 mm 4 m/s 758 mmHg 68%
18:00 +27°C° 0 mm 4 m/s 759 mmHg 72%
19:00 +26°C° 0 mm 3 m/s 759 mmHg 76%
20:00 +25°C° 0 mm 3 m/s 760 mmHg 80%
21:00 +25°C° 0 mm 3 m/s 760 mmHg 80%
22:00 +25°C° 0 mm 3 m/s 760 mmHg 80%
23:00 +25°C° 0 mm 3 m/s 760 mmHg 80%

Depois de amanhã, 29 Janeiro, Sexta-feira

Tempo Temperatura Precipitação Vento Pressão Humidade
00:00 +24°C° 0 mm 3 m/s 759 mmHg 82%
01:00 +24°C° 0 mm 2 m/s 759 mmHg 83%
02:00 +23°C° 0 mm 2 m/s 758 mmHg 85%
03:00 +23°C° 0 mm 2 m/s 759 mmHg 85%
04:00 +23°C° 0 mm 1 m/s 759 mmHg 85%
05:00 +22°C° 0 mm 1 m/s 759 mmHg 85%
06:00 +24°C° 0 mm 1 m/s 759 mmHg 78%
07:00 +25°C° 0 mm 2 m/s 760 mmHg 71%
08:00 +27°C° 0 mm 2 m/s 761 mmHg 63%
09:00 +28°C° 0 mm 3 m/s 760 mmHg 57%
10:00 +30°C° 0 mm 3 m/s 760 mmHg 50%
11:00 +32°C° 0 mm 4 m/s 760 mmHg 44%
12:00 +32°C° 0 mm 4 m/s 759 mmHg 44%
13:00 +32°C° 0 mm 4 m/s 759 mmHg 43%
14:00 +32°C° 0 mm 4 m/s 758 mmHg 43%
15:00 +30°C° 0 mm 4 m/s 758 mmHg 48%
16:00 +29°C° 0 mm 4 m/s 758 mmHg 53%
17:00 +28°C° 0 mm 3 m/s 758 mmHg 58%
18:00 +27°C° 0 mm 3 m/s 759 mmHg 64%
19:00 +26°C° 0 mm 2 m/s 759 mmHg 70%
20:00 +24°C° 0 mm 2 m/s 760 mmHg 76%
21:00 +24°C° 0 mm 2 m/s 760 mmHg 78%
22:00 +23°C° 0 mm 1 m/s 760 mmHg 80%
23:00 +23°C° 0 mm 1 m/s 760 mmHg 83%

30 Janeiro, Sábado

Tempo Temperatura Precipitação Vento Pressão Humidade
00:00 +23°C° 0 mm 1 m/s 760 mmHg 84%
01:00 +22°C° 0 mm 1 m/s 759 mmHg 85%
02:00 +22°C° 0 mm 1 m/s 759 mmHg 86%
03:00 +22°C° 0 mm 1 m/s 759 mmHg 87%
04:00 +21°C° 0 mm 1 m/s 758 mmHg 87%
05:00 +21°C° 0 mm 1 m/s 758 mmHg 88%
06:00 +23°C° 0 mm 1 m/s 759 mmHg 82%
07:00 +24°C° 0 mm 1 m/s 760 mmHg 76%
08:00 +26°C° 0 mm 1 m/s 760 mmHg 70%
09:00 +27°C° 0 mm 1 m/s 760 mmHg 61%
10:00 +29°C° 0 mm 2 m/s 760 mmHg 52%
11:00 +31°C° 0 mm 3 m/s 760 mmHg 44%
12:00 +33°C° 0 mm 3 m/s 759 mmHg 43%
13:00 +33°C° 0 mm 4 m/s 758 mmHg 41%
14:00 +33°C° 0 mm 4 m/s 757 mmHg 40%
15:00 +32°C° 0 mm 4 m/s 757 mmHg 46%
16:00 +30°C° 0 mm 4 m/s 757 mmHg 52%
17:00 +28°C° 0 mm 3 m/s 757 mmHg 58%
18:00 +27°C° 0 mm 3 m/s 758 mmHg 64%
19:00 +26°C° 0 mm 2 m/s 759 mmHg 70%
20:00 +25°C° 0 mm 2 m/s 760 mmHg 76%
21:00 +24°C° 0 mm 2 m/s 760 mmHg 78%
22:00 +24°C° 0 mm 2 m/s 760 mmHg 80%
23:00 +23°C° 0 mm 2 m/s 760 mmHg 83%

31 Janeiro, Domingo

Tempo Temperatura Precipitação Vento Pressão Humidade
00:00 +23°C° 0 mm 2 m/s 759 mmHg 83%
01:00 +23°C° 0 mm 2 m/s 759 mmHg 84%
02:00 +23°C° 0 mm 2 m/s 758 mmHg 85%
03:00 +21°C° 0 mm 2 m/s 758 mmHg 87%
04:00 +21°C° 0 mm 2 m/s 758 mmHg 88%
05:00 +21°C° 0 mm 1 m/s 758 mmHg 90%
06:00 +23°C° 0 mm 1 m/s 758 mmHg 84%
07:00 +24°C° 0 mm 1 m/s 759 mmHg 78%
08:00 +25°C° 0 mm 1 m/s 760 mmHg 72%
09:00 +27°C° 0 mm 2 m/s 760 mmHg 63%
10:00 +30°C° 0 mm 3 m/s 760 mmHg 55%
11:00 +33°C° 0 mm 3 m/s 760 mmHg 46%
12:00 +33°C° 0 mm 4 m/s 759 mmHg 46%
13:00 +33°C° 0 mm 4 m/s 758 mmHg 45%
14:00 +33°C° 0 mm 4 m/s 758 mmHg 45%
15:00 +32°C° 0 mm 4 m/s 758 mmHg 51%
16:00 +30°C° 0 mm 4 m/s 758 mmHg 56%
17:00 +29°C° 0 mm 4 m/s 758 mmHg 62%
18:00 +27°C° 0 mm 3 m/s 759 mmHg 68%
19:00 +26°C° 0 mm 3 m/s 759 mmHg 75%
20:00 +25°C° 0 mm 2 m/s 760 mmHg 81%
21:00 +25°C° 0 mm 2 m/s 760 mmHg 83%
22:00 +24°C° 0 mm 2 m/s 760 mmHg 85%
23:00 +24°C° 0 mm 1 m/s 760 mmHg 87%

1 Fevereiro, Segunda-feira

Tempo Temperatura Precipitação Vento Pressão Humidade
00:00 +23°C° 0 mm 1 m/s 760 mmHg 88%
01:00 +23°C° 0 mm 1 m/s 759 mmHg 89%
02:00 +23°C° 0 mm 1 m/s 759 mmHg 89%
03:00 +22°C° 0 mm 1 m/s 759 mmHg 90%
04:00 +22°C° 0 mm 1 m/s 759 mmHg 91%
05:00 +21°C° 0 mm 1 m/s 759 mmHg 91%
06:00 +23°C° 0 mm 1 m/s 760 mmHg 84%
07:00 +25°C° 0 mm 1 m/s 761 mmHg 76%
08:00 +26°C° 0 mm 1 m/s 761 mmHg 69%
09:00 +28°C° 0 mm 2 m/s 761 mmHg 61%
10:00 +30°C° 0 mm 3 m/s 761 mmHg 53%
11:00 +33°C° 0 mm 4 m/s 761 mmHg 45%
12:00 +33°C° 0 mm 4 m/s 760 mmHg 46%
13:00 +33°C° 0 mm 4 m/s 759 mmHg 46%
14:00 +33°C° 0 mm 5 m/s 759 mmHg 47%
15:00 +32°C° 0 mm 4 m/s 758 mmHg 53%
16:00 +30°C° 0 mm 4 m/s 758 mmHg 59%
17:00 +29°C° 0 mm 4 m/s 758 mmHg 65%
18:00 +27°C° 0 mm 3 m/s 759 mmHg 71%
19:00 +26°C° 0 mm 3 m/s 760 mmHg 76%
20:00 +25°C° 0 mm 2 m/s 761 mmHg 82%
21:00 +25°C° 0 mm 2 m/s 761 mmHg 84%
22:00 +24°C° 0 mm 2 m/s 761 mmHg 85%
23:00 +24°C° 0 mm 2 m/s 760 mmHg 87%
Mostrar mais

Necessitamos do seu Consentimento

A Meteoprog e os seus Fornecedores de Serviços podem armazenar e aceder a dados pessoais como cookies, identificadores do dispositivo ou outras tecnologias semelhantes existentes no seu dispositivo e processar estes dados para personalizar conteúdos e anúncios, assim como funcionalidades nas redes sociais e análise de tráfego.

  • Armazenar e/ou aceder a informações no seu dispositivo

    Os cookies, identificadores do dispositivo ou outras informações podem ser armazenados ou acedidos no seu dispositivo, para os fins acima indicados.

  • Anúncios e conteúdos personalizados, medição de anúncios e conteúdos, dados sobre o público-alvo e desenvolvimento de produtos

    Os anúncios e os conteúdos podem ser personalizados com base num perfil. Podem ser adicionados dados adicionais para uma maior personalização dos anúncios e dos conteúdos. A eficácia dos anúncios e dos conteúdos pode ser medida. Podem ser obtidas informações sobre o público que visualizou os anúncios e os conteúdos. Estes dados podem ser usados para desenvolver ou melhorar sistemas, softwares ou a experiência do utilizador.

Ao clicar em "Eu concordo”, permitirá o uso de cookies, identificadores do dispositivo e web beacons mencionados ou outras tecnologias semelhantes. As configurações do navegador do seu dispositivo podem ser alteradas.

Para certos fins, podem ser invocados interesses legítimos ao invés de consentimento. Pode ler mais informação sobre este assunto na nossa Política de Privacidade e Cookies.